Volver al catálogo

STARLINK-30338

ActivoComunicacionesVLEO
NORAD 57718·PAYLOAD·🇺🇸 United States

Lanzado Aug 27, 2023 desde Cape Canaveral Space Force Station

Loading…

Próximos Pases (próximas 24 horas)

TLE

ActualizadoSource: CelesTrak SupGP

Época: Sep 14, 2026, 20:34 UTC

1 57718C 23129W   26257.85743056 -.00009478  00000+0 -34345-3 0  2573
2 57718  42.9994 129.8675 0001118 272.7618 317.7192 15.27568795    15

Sigue STARLINK-30338 en tiempo real con AllMySat

Download on the App Store